CYQX

Gander International

Airport
ICAO code
CYQX
IATA Code
YQX
Summary
ICAO Region
NAM
ICAO Territory
Location

Gander, Newfoundland,

Serving
Gander
Elevation
496 ft
Coordinates
48° 56' 13" N , 54° 34' 5" W
KCC
Metar
CYQX 222000Z 14009KT 20SM OVC095 M04/M07 A3010 RMK AC8 SLP204

Description

International airport serving Gander, Newfoundland.

Climatology

Humid Continental climate (Köppen climate classification Dfb) - Variable weather patterns and a large seasonal temperature variance. Summers are often warm and humid with frequent thunderstorms and winters can be very cold with frequent snowfall and persistent snow cover.

The separate article climate Newfoundland contains more detail on the climate of Newfoundland and associated weather phenomena.

Runways

Designator Length Width Surface Rops
9/27 572 15 ASP Yes/Yes
13/31 2713 61 ASP Yes/Yes
3/21 3109 61 ASP Yes/Yes

Airport map

Aerial View

SKYbrary Partners:

Safety knowledge contributed by: